User: anonymous   Login
Location: Unspecified
(0.0000°N, 0.0000°E)
Time: 18:26:59
(UTC+00:00)
Language:

PCSat - Orbit

View from above orbital plane
View from above orbital plane
View from above satellite
View from above satellite

Ground track
Ground track

The orbit data is extracted from the following two-line orbital elements,

1 26931U 01043C   17080.91930013 -.00000013 +00000-0 +26913-4 0  9991
2 26931 067.0516 316.3595 0007518 278.1602 081.8646 14.30451482807793
Epoch (UTC): 21 March 2017 22:03:47
Eccentricity: 0.0007518
inclination: 67.0516°
perigee height: 785 km
apogee height: 795 km
right ascension of ascending node: 316.3595°
argument of perigee: 278.1602°
revolutions per day: 14.30451482
mean anomaly at epoch: 81.8646°
orbit number at epoch: 80779

The dashed part of the orbit path shows where the satellite is in the earth's shadow,  

DLR